Volver al catálogo

TROOP-F3

ActivoMilitarSSO
NORAD 68429·PAYLOAD·🇺🇸 United States

Lanzado Mar 30, 2026 desde Vandenberg Space Force Base

Loading…

Próximos Pases (próximas 24 horas)

TLE

ActualizadoSource: Space-Track

Época: Sep 14, 2026, 14:43 UTC

1 68429U 26067P   26257.61347996  .00010783  00000-0  48312-3 0  9997
2 68429  97.4602 215.1186 0004612  84.0862 276.0900 15.21412943 25535

Sigue TROOP-F3 en tiempo real con AllMySat

Download on the App Store